Regional Weather Roundup
Issued by NWS Pendleton, OR

Home | Current Version | Previous Version | Text Only | Print | Product List | Glossary On
Versions: 1 2 3 4 5 6 7 8 9 10 11 12 13 14 15 16 17 18 19 20 21 22 23 24 25 26 27 28 29 30 31 32 33 34 35 36 37 38 39 40 41 42 43 44 45 46 47 48 49 50
000
ASUS46 KPDT 060525
RWRPDT
PENDLETON REGIONAL WEATHER ROUNDUP
NATIONAL WEATHER SERVICE PENDLETON OREGON
1000 PM PDT SUN JUL 5 2015

NOTE: FAIR INDICATES FEW OR NO CLOUDS BELOW 12,000 FEET WITH NO
SIGNIFICANT WEATHER AND/OR OBSTRUCTIONS TO VISIBILITY.

# INDICATES UNOFFICIAL STATION AND DATA

WAZ520-060610-
EAST SLOPES OF WASHINGTON CASCADES

CITY            SKY/WX      TMP DP  RH  WIND    PRES   REMARKS
#BUMPING DAM    N/A         73  N/A N/A E14     N/A
#CLE ELUM HS    N/A         74  51  44  CALM    29.87R
#CLE ELUM LAKE  N/A         75  49  40  CALM    29.78R
#CLIFFDEL 2NW   N/A         76  45  33  CALM    N/A
#GLENWOOD       N/A         77  52  42  S3      29.80R
#MANASTASH CYN  N/A         69  38  32  CALM    29.97R
#NELSON         N/A         72  54  53  CALM    29.81R
#NELSON 3SW     N/A         69  48  47  CALM    29.98R
#NILE           N/A         70  50  49  CALM    29.11R
#RONALD 2NW     N/A         73  49  43  N2      29.87R
#SNOWDEN        N/A         83  27  13  CALM    N/A
#TEANAWAY 4NE   N/A         76  50  40  NE1     N/A
#TROUT LAKE 1NE N/A         72  56  57  CALM    29.81R
$$

WAZ521-060610-
SIMCOE HIGHLANDS

CITY            SKY/WX      TMP DP  RH  WIND    PRES   REMARKS
#BICKLETON HS   N/A         73  21  14  CALM    N/A
#CENTERVILLE 1SWN/A         83  48  30  CALM    29.75R
#GOLDENDALE     N/A         84  42  23  S6      N/A
#GOLDENDALE 5WNWN/A         83  49  31  W9      29.77R
#GOODNOE HILLS  N/A         84  39  20  NW8     N/A
#LYLE 6NE       N/A         83  51  33  CALM    29.77R
$$

WAZ026-060610-
KITTITAS VALLEY

CITY            SKY/WX      TMP DP  RH  WIND    PRES   REMARKS
ELLENSBURG AP   CLEAR       73  43  34  NW5     29.90R
YTC-OPS AREA    N/A         79  30  17  N6      29.96R
#ELLENSBURG CWU N/A         76  46  34  CALM    29.75R
#ELLENSBURG 3NE N/A         72  45  38  CALM    29.90R
#ELLENSBURG 1E  N/A         71  43  36  CALM    N/A
#KITTITAS 3S    N/A         66  53  63  CALM    29.78R
#THORP 6N       N/A         79  41  26  CALM    29.82R
$$

WAZ027-060610-
YAKIMA VALLEY

CITY            SKY/WX      TMP DP  RH  WIND    PRES   REMARKS
SUNNYSIDE AP    CLEAR       69  51  53  N6      29.83R
YAKIMA AIRPORT  CLEAR       77  49  37  W6      29.85R SMOKE
#DONALD 2NE     N/A         83  13   7  CALM    28.70R
#GRANDVIEW      N/A         78  42  28  CALM    29.79R
#MABTON         N/A         78  43  29  CALM    29.81R
#MOXEE 2E       N/A         76  22  13  NE1     29.81R
#NACHES 2SW     N/A         73  59  62  W1      29.89R
#OUTLOOK DOT    N/A         N/A N/A N/A NE5     N/A
#SELAH 8E       N/A         74  32  21  SE7     N/A
#TERRACE HTS    N/A         78  43  29  CALM    29.74R
#TOPPENISH      N/A         79  58  49  CALM    29.70R
#WAPATO 4NE     N/A         83  13   7  CALM    28.70R
#WEST VALLEY    N/A         77  51  40  CALM    29.76R
#W YAKIMA       N/A         83  45  26  SW1     29.78R
#WHITE SWAN 5E  N/A         75  56  52  W2      29.79R
#WILEY CITY 3W  N/A         73  38  28  CALM    29.85R
$$

WAZ028-060610-
LOWER COLUMBIA BASIN...WASHINGTON

CITY            SKY/WX      TMP DP  RH  WIND    PRES   REMARKS
PASCO           CLEAR       72  61  68  N7      29.80R
RICHLAND AWOS   CLEAR       82  52  35  MISG    29.80R
#BASIN CITY 5SW N/A         76  54  46  NE5     29.82R
#BENTON CITY    N/A         81  42  25  NW1     29.67R
#CONNELL 5N     N/A         83  45  26  E6      29.78R
#CONNELL 5NW    N/A         82  46  28  E2      29.77R
#ELTOPIA 6NW    N/A         80  52  38  E14     28.82R
#KAHLOTUS       N/A         82  44  26  S13     29.79R
#KENNEWICK 3S   N/A         85  46  26  CALM    29.77R
#PATERSON       N/A         81  47  30  CALM    29.75R
#PROSSER        N/A         85  41  21  CALM    29.76R
#SAGEMOOR 2W    N/A         79  53  41  N6      29.64R
#TOUCHET 2S     N/A         77  55  47  W3      29.75R
#WEST PASCO     N/A         83  52  34  NE2     29.78R
$$

WAZ029-060610-
FOOTHILLS OF THE BLUES...WASHINGTON

CITY            SKY/WX      TMP DP  RH  WIND    PRES   REMARKS
WALLA WALLA AP  CLEAR       82  48  31  E13     29.84R
#DAYTON SCHOOL  N/A         81  43  26  CALM    29.89R
#LOWDEN 2SE     N/A         80  53  39  CALM    29.76R
#PLEASANT VIEW 1N/A         81  44  27  N6      29.82R
#PRESCOTT       N/A         83  47  28  CALM    29.75R
#SUDBURY        N/A         82  N/A N/A CALM    N/A
#WAITSBURG 5S   N/A         78  47  34  NE2     29.85R
#WAITSBURG 8N   N/A         76  22  13  N6      29.71R
#WHITMAN MISSIONN/A         80  55  42  CALM    29.77R
$$

WAZ030-060610-
BLUE MOUNTAINS...WASHINGTON

CITY            SKY/WX      TMP DP  RH  WIND    PRES   REMARKS
#DIXIE 5SE      N/A          0  -78  1  CALM    29.91R
$$

ORZ009-041-WAZ024-060610-
COLUMBIA RIVER GORGE

CITY            SKY/WX      TMP DP  RH  WIND    PRES   REMARKS
HOOD RIVER AP   CLEAR       82  48  31  CALM    29.86R
THE DALLES AP   CLEAR       88  48  25  NW13    29.81R
#ARLINGTON AIRPON/A         85  41  21  NW5     29.45S
#ARLINGTON HS   N/A         84  41  22  CALM    29.66R
#CELILO DOT     N/A         91  59  34  SW5     N/A    HX 90
#MOSIER 1S      N/A         85  34  16  NW6     29.82S
#MURDOCK        N/A         90  51  26  N13     29.80R HX 87
#RUFUS DOT      N/A         89  56  33  CALM    N/A

$$

ORZ510-060610-
NORTH CENTRAL OREGON

CITY            SKY/WX      TMP DP  RH  WIND    PRES   REMARKS
#CHENOWITH 1W   N/A         82  45  27  NW25    N/A
#COW CYN RST AREN/A         80  N/A N/A NW7     N/A
#DUFUR 9E       N/A         79  50  36  NW3     29.83R
#GRASS VALLEY 1SN/A         78  54  43  NW5     29.80R
#KENT DOT       N/A         78  44  30  N7      N/A
#MAUPIN SCHOOL  N/A         87  54  32  NW2     29.87R
#MORO SCHOOL    N/A         82  58  44  NW8     29.91R
#SHANIKO 5WSW   N/A         77  36  23  NW8     N/A
#SHANIKO 4NW    N/A         77  29  17  VRB10   30.03R
#TYGH VALLEY 2NEN/A         85  57  39  CALM    29.78R
#WAPANITIA AIRPON/A         81  49  33  W5      29.80R
#WASCO DOT      N/A         77  54  45  E2      N/A
#WASCO AIRPORT  N/A         79  48  34  W3      N/A
#WASCO 5NE      N/A         75  48  38  CALM    29.78R
$$

ORZ511-060610-
CENTRAL OREGON

CITY            SKY/WX      TMP DP  RH  WIND    PRES   REMARKS
BEND AIRPORT    N/A         N/A N/A N/A MISG    N/A
MADRAS AIRPORT  CLEAR       81  43  26  NW14    29.97R
PRINEVILLE AP   PTCLDY      77  43  30  W10     30.01R
REDMOND AIRPORT PTCLDY      79  41  26  N9      30.00
#BEND 1SW       N/A         74  46  37  CALM    N/A
#BEND-AWBREY    N/A         76  46  34  CALM    29.80R
#BEND-KIM LN    N/A         77  46  33  CALM    30.00R
#CROOKED RVR RANN/A         80  46  30  CALM    29.79R
#CULVER         N/A         79  47  32  SW1     29.94R
#LAKE BILLY CHINN/A         81   4   5  SW1     30.00R
#POWELL BUTTE 3EN/A         78  46  32  W7      N/A
#POWELL BUTTE   N/A         76  43  31  NW2     29.67R
#PRINEVILLE 3N  N/A         71  51  49  W2      29.79R
#WARM SPRINGS   N/A         87  50  28  W9      29.88R

$$


ORZ509-060610-
EAST SLOPES OF OREGON CASCADES

CITY            SKY/WX      TMP DP  RH  WIND    PRES   REMARKS
#BLUE BOX PASS  N/A         69  12  11  NW1     N/A
#CAMP SHERMAN   N/A         70  46  42  CALM    29.84R
#LA PINE 4NW    N/A         67  51  56  CALM    29.89R
#SISTERS AIRPOR N/A         78  53  42  CALM    30.17S
#SISTERS ODOT   N/A         78  N/A N/A SW6     N/A
#SISTERS 1NW    N/A         77  42  29  N7      N/A
#SISTERS 3N     N/A         75  40  28  CALM    30.01R
#SUNRIVER       N/A         72  47  41  CALM    29.72R
#TUMALO 3W      N/A         76  46  34  N2      29.68R
#WANOGA BUTTE D N/A         68  40  36  NW8     N/A

$$

ORZ044-060610-
LOWER COLUMBIA BASIN...OREGON

CITY            SKY/WX      TMP DP  RH  WIND    PRES   REMARKS
HERMISTON       CLEAR       83  47  28  N3      29.80R
#BOARDMAN SCHOOLN/A         78  58  50  SE1     29.80R
#BOARDMAN 8SW   N/A         85  55  36  N2      29.76R
#ECHO 8SW       N/A         75  48  38  SW2     29.82R
#IONE SCHOOL    N/A         80  40  24  CALM    29.82R
#IRRIGON 4NW    N/A         81  54  39  S2      N/A
#UMATILLA SCHOOLN/A         82  61  49  CALM    29.85S
#UMATILLA       N/A         84  47  28  CALM    29.70R
$$

ORZ507-060610-
NORTHERN FOOTHILLS OF THE BLUES

CITY            SKY/WX      TMP DP  RH  WIND    PRES   REMARKS
PENDLETON AIRPT CLEAR       75  37  25  N6      29.86R
#ADAMS 3WNW     N/A         75  40  28  NW1     29.75R
#ATHENA         N/A         76  43  31  E1      29.79R
#CAYUSE         N/A         80  46  30  E6      29.76R
#HELIX SCHOOL   N/A         76  41  28  N5      29.76R
#HELIX 3N       N/A         79  40  25  N15     29.86R
#HOLDMAN 6E     N/A         76  43  31  CALM    29.59R
#M-F GROVE ELEM N/A         81  42  25  SE3     29.83R
#M-FREEWATER 5SEN/A         76  51  42  NW5     29.85R
#PENDLETON DNTN N/A         83  41  23  SW1     29.81S
#PDT AQUATIC CTRN/A         79  38  23  N6      29.89R
#PDT SUNRIDGE   N/A         78  43  29  SE1     29.86R
#PENDLETON 7NW  N/A         81  47  30  CALM    N/A
#PILOT ROCK     N/A         75  43  32  SE5     29.92R
#TUTUILLA       N/A         73  47  40  CALM    29.80R
#UMAPINE 2E     N/A         76  55  48  CALM    29.78R
#WESTON SCHOOL  N/A         78  38  24  CALM    29.76R

$$

ORZ508-060610-
SOUTHERN FOOTHILLS OF THE BLUES

CITY            SKY/WX      TMP DP  RH  WIND    PRES   REMARKS
#AJAX           N/A         81  40  23  W3      29.87R
#CONDON SCHOOL  N/A         78  37  23  VRB1    29.93R
#CONDON 5W      N/A         78  32  19  NE7     29.96R
#FOSSIL SCHOOL  N/A         79  37  22  CALM    29.91R
#HEPPNER EOC    N/A         77  38  24  SE1     29.72R
#HEPPNER 4NE    N/A         74  39  28  E1      29.78R
#LEXINGTON 2SE  N/A         77  41  28  S3      29.85R
#RUGGS 5NE      N/A         78  27  15  NE3     30.11F
#RUGGS 2SW      N/A         76  38  25  SW1     29.79R

$$

ORZ502-503-060610-
BLUE MOUNTAINS

CITY            SKY/WX      TMP DP  RH  WIND    PRES   REMARKS
MEACHAM         CLEAR       63  49  60  CALM    30.03R
#BATTLE MTN DOT N/A         68  52  57  CALM    N/A
#HEPPNER 15SE   N/A         65  43  45  CALM    29.96R
#LONG CREEK HS  N/A         67  41  39  CALM    29.98R
#N POWDER DOT   N/A         67  47  49  NW8     N/A
#PIKES PEAK     N/A         77  45  32  NE2     27.99S
#TOLLGATE       N/A         63  38  39  CALM    30.02R
#TROY SCHOOL    N/A         84  50  31  N1      29.63R
#UKIAH          N/A         64  45  50  CALM    29.85R
#WESTON 4E      N/A         74  41  30  E1      29.72R
$$

ORZ505-060610-
JOHN DAY BASIN

CITY            SKY/WX      TMP DP  RH  WIND    PRES   REMARKS
JOHN DAY        PTCLDY      79  37  22  CALM    30.02R
#JOHN DAY KJDY  N/A         80  64  58  CALM    30.03R
#DAYVILLE SCHOOLN/A         84  31  15  CALM    29.90R
#MITCHELL       N/A         76  45  33  CALM    30.14R
#MONUMENT HS    N/A         78  37  23  CALM    29.91R
#MT. VERNON 5SE N/A         75  39  27  CALM    29.99R
#WINLOCK        N/A         72  38  29  CALM    30.06R
$$

ORZ506-060610-
OCHOCO AND JOHN DAY HIGHLANDS

CITY            SKY/WX      TMP DP  RH  WIND    PRES   REMARKS
#BUCK CREEK DOT N/A         71  71  100 S7      N/A
#HORSE RIDGE DO N/A         76  42  30  W3      N/A
#KEYES SMT DOT  N/A         72  31  22  CALM    N/A
#PAULINA SCHOOL N/A         77  45  32  CALM    30.00R
#PINE MTN OBS   N/A         66  43  43  NW1     N/A
#PRAIRIE CITY   N/A         70  52  53  CALM    29.85R
#SENECA         N/A         72  N/A N/A SE5     N/A
#SENECA 9NW     N/A         65  45  48  NE1     29.82R
$$

ORZ049-060610-
GRANDE RONDE VALLEY

CITY            SKY/WX      TMP DP  RH  WIND    PRES   REMARKS
LA GRANDE       CLEAR       66  37  34  N6      29.95R
#COVE           N/A         70  49  47  N2      29.97R
#ELGIN 3N       N/A         70  42  36  CALM    29.94R
#ELGIN 1E       N/A         76  47  36  CALM    N/A
#IMBLER SCHOOL  N/A         76  46  34  N2      29.91R
#ISLAND CITY 4N N/A         74  56  53  CALM    29.85R
#LADD CYN DOT   N/A         76  45  33  SE8     N/A
#UNION 1S       N/A         73  49  43  CALM    29.68R
$$

ORZ050-060610-
WALLOWA COUNTY

CITY            SKY/WX      TMP DP  RH  WIND    PRES   REMARKS
JOSEPH AIRPORT  N/A         66  41  40  S5      30.04R
#IMNAHA SCHOOL  N/A         77  47  35  CALM    29.88R
#IMNAHA 10S     N/A         76  51  42  SW3     30.01S
#JOSEPH 3N      N/A         61  47  60  CALM    30.05R
#JOSEPH 3W      N/A         68  39  35  SW2     29.91R
#LOSTINE        N/A         70  45  41  S1      29.60R
#MT HOWARD 8000 N/A         60  34  37  N1      30.33R
#PROMISE 1S     N/A         73  49  43  CALM    29.90R
#WALLOWA SCHOOL N/A         69  53  57  CALM    29.93R



$$



USA.gov is the U.S. government's official web portal to all federal, state and local government web resources and services.